#timestamp,LO_Frequency,Hit,StdDev 
1634752815.7,286047002.4,N
1634752835.6,286047002.4,N
1634752855.4,286047002.7,N
1634752875.2,286047002.5,N
1634752895.1,286046999.9,N
1634752896.0,286046999.9,N
1634752915.8,286047000.2,N
1634752935.6,286047002.7,N
1634752955.5,286047002.2,N
1634752975.3,286047002.5,N
1634752995.2,286047001.6,N
1634753015.9,286047001.8,N
1634753035.7,286047003.9,N
1634753055.6,286047003.8,N
1634753075.4,286047004.1,N
1634753095.2,286047004.1,N
1634753115.1,286047004.4,N
1634753116.0,286047004.4,N
1634753135.8,286047004.4,N
1634753155.7,286047003.8,N
1634753175.5,286047003.7,N
1634753195.3,286047003.5,N
1634753215.2,286047003.3,N
1634753235.0,286047003.2,N
1634753235.9,286047003.2,N
1634753255.7,286047003.4,N
1634753275.6,286047003.4,N
1634753295.4,286047005.8,Y
1634753315.3,286047002.7,P
1634753335.1,286047002.7,P
1634753355.8,286047002.7,P
1634753375.7,286047002.7,Y
1634753395.5,286046998.6,P
1634753415.4,286046998.5,N
1634753435.2,286046999.3,N
1634753455.0,286046999.3,N
1634753455.9,286046999.3,N
1634753475.8,286046998.9,N
1634753495.6,286046998.1,N
1634753515.4,286047001.2,N
1634753535.3,286047001.1,N
1634753555.1,286047001.2,N
1634753575.9,286047000.0,N
1634753595.7,286047001.2,N
1634753615.5,286047001.0,N
1634753635.4,286047000.4,N
1634753655.2,286047000.0,N
1634753675.0,286047000.4,N
1634753675.9,286047000.4,N
1634753695.8,286047001.3,N
1634753715.6,286047006.6,Y
1634753735.5,286047009.2,P
1634753755.3,286047006.6,N
1634753775.1,286047006.4,N
1634753795.9,286047005.7,N
1634753815.7,286047008.4,N
1634753835.6,286047007.2,N
1634753855.4,286047005.9,N
1634753875.2,286047005.5,N
1634753895.1,286047005.3,N
1634753896.0,286047005.3,N
1634753915.8,286047005.3,N
1634753935.6,286047008.3,Y
1634753955.5,286047005.9,P
1634753975.3,286047004.0,P
1634753995.2,286047002.7,N
1634754015.9,286047000.2,N
1634754035.7,286047000.7,N
1634754055.6,286046999.1,N
1634754075.4,286046998.9,N
1634754095.2,286046998.6,N
1634754115.1,286046999.6,N
1634754116.0,286046999.6,N
1634754135.8,286046996.6,N
1634754155.7,286046999.2,N
1634754175.5,286046999.1,N
1634754195.3,286046998.8,N
1634754215.2,286046998.8,N
1634754235.0,286046999.1,N
1634754235.9,286046999.1,N
1634754255.7,286046999.0,N
1634754275.6,286046999.4,N
1634754295.4,286046999.2,N
1634754315.3,286046996.9,N
1634754335.1,286046996.6,N
1634754336.0,286046996.6,N
1634754355.8,286046999.4,N
1634754375.7,286046996.9,N
1634754395.5,286046996.6,N
1634754415.4,286046997.3,N
1634754435.2,286046997.1,N
1634754455.0,286046999.5,N
1634754455.9,286046999.5,N
1634754475.8,286046999.5,N
1634754495.6,286046999.2,N
1634754515.4,286046999.0,N
1634754535.3,286046998.2,N
1634754555.1,286047000.4,N
1634754575.9,286047000.9,N
1634754595.7,286046998.8,N
1634754615.5,286046998.1,N
1634754635.4,286047000.7,N
1634754655.2,286047001.1,N
1634754675.0,286047001.1,N
1634754675.9,286047001.1,N
1634754695.8,286047000.6,N
1634754715.6,286047000.8,N
1634754735.5,286047000.4,N
1634754755.3,286047000.4,N
1634754775.1,286047000.4,N
1634754795.9,286047001.1,N
1634754815.7,286047000.4,N
1634754835.6,286047002.7,N
1634754855.4,286047000.3,N
1634754875.2,286047002.7,N
1634754895.1,286047002.3,N
1634754896.0,286047002.3,N
1634754915.8,286047001.3,N
1634754935.6,286047003.8,N
1634754955.5,286047003.2,N
1634754975.3,286047006.0,Y
1634754995.2,286047003.6,P
1634755015.9,286047005.7,P
1634755035.7,286047005.5,N
1634755055.6,286047005.0,N
1634755075.4,286047004.9,N
1634755095.3,286047007.5,Y
1634755115.1,286046999.8,P
1634755116.0,286046999.8,N
1634755135.8,286047002.5,N
1634755155.7,286047001.5,N
1634755175.5,286047002.5,N
1634755195.3,286047001.6,N
1634755215.2,286047001.7,N
1634755235.0,286047003.7,N
1634755235.9,286047003.7,N
1634755255.8,286047003.4,N
1634755275.6,286047003.7,N
1634755295.4,286047004.3,N
1634755315.3,286047001.8,N
1634755335.1,286047002.5,N
1634755355.8,286047001.5,N
1634755375.7,286047002.1,N
1634755395.5,286047002.3,N
1634755415.4,286047002.3,N
1634755435.2,286047002.8,N
1634755455.0,286047002.7,N
1634755455.9,286047002.7,N
1634755475.8,286047002.4,N
1634755495.6,286047002.6,N
1634755515.4,286046999.8,N
1634755535.3,286047000.3,N
1634755555.1,286047000.3,N
1634755575.9,286046999.9,N
1634755595.7,286047002.5,N
1634755615.5,286047002.8,N
1634755635.4,286047002.4,N
1634755655.2,286047002.5,N
1634755675.0,286047002.1,N
1634755676.0,286047002.1,N
1634755695.8,286047001.3,N
1634755715.6,286047003.6,Y
1634755735.5,286047001.5,P
1634755755.3,286047001.8,P
1634755775.1,286047004.1,P
1634755795.9,286047003.6,Y
1634755815.7,286047002.7,P
1634755835.6,286047001.6,P
1634755855.4,286047001.5,P
1634755875.2,286047001.5,N
1634755895.1,286047004.4,Y
1634755896.0,286047004.4,P
1634755915.8,286047000.3,N
1634755935.7,286047000.2,N
1634755955.5,286047000.9,N
1634755975.3,286047000.6,N
1634755995.2,286047000.3,N
1634756015.0,286047000.0,N
1634756015.9,286047000.0,N
1634756035.7,286047002.4,N
1634756055.6,286047000.2,N
1634756075.4,286047000.0,N
1634756095.3,286046999.7,N
1634756115.1,286047004.4,Y
1634756116.0,286047004.4,P
1634756135.8,286047001.6,N
1634756155.7,286047004.4,N
1634756175.5,286047001.8,N
1634756195.3,286047001.3,N
1634756215.2,286047001.5,N
1634756235.0,286047002.0,N
1634756235.9,286047002.0,N
1634756255.8,286047000.4,N
1634756275.6,286047000.3,N
1634756295.4,286047000.4,N
1634756315.3,286047000.6,N
1634756335.1,286046999.9,N
1634756355.9,286047000.9,N
1634756375.7,286047000.5,N
1634756395.5,286047000.1,N
